TimeMDT,TemperatureF,Dew PointF,Humidity,Sea Level PressureIn,VisibilityMPH,Wind Direction,Wind SpeedMPH,Gust SpeedMPH,PrecipitationIn,Events,Conditions,WindDirDegrees,DateUTC
12:53 AM,53.1,25.0,34,30.00,10.0,SSW,8.1,-,N/A,,Clear,200,2012-06-12 06:53:00
1:53 AM,50.0,25.0,38,29.99,10.0,SSW,6.9,-,N/A,,Clear,200,2012-06-12 07:53:00
2:53 AM,46.0,25.0,44,29.98,10.0,South,12.7,-,N/A,,Clear,170,2012-06-12 08:53:00
3:53 AM,46.0,26.1,46,29.96,10.0,South,11.5,-,N/A,,Clear,170,2012-06-12 09:53:00
4:53 AM,42.1,26.1,53,29.98,10.0,South,12.7,-,N/A,,Clear,190,2012-06-12 10:53:00
5:53 AM,39.0,25.0,57,30.00,10.0,South,8.1,-,N/A,,Clear,190,2012-06-12 11:53:00
6:53 AM,45.0,26.1,48,29.99,5.0,South,4.6,-,N/A,,Haze,180,2012-06-12 12:53:00
7:53 AM,55.9,26.1,32,29.96,10.0,SSE,8.1,-,N/A,,Clear,150,2012-06-12 13:53:00
8:53 AM,64.9,10.9,12,29.93,10.0,West,19.6,-,N/A,,Clear,260,2012-06-12 14:53:00
9:53 AM,66.0,17.1,15,29.93,10.0,WSW,18.4,24.2,N/A,,Clear,250,2012-06-12 15:53:00
10:53 AM,69.1,16.0,13,29.91,10.0,West,18.4,27.6,N/A,,Clear,280,2012-06-12 16:53:00
11:53 AM,71.1,16.0,12,29.89,10.0,West,18.4,31.1,N/A,,Clear,270,2012-06-12 17:53:00
12:53 PM,72.0,15.1,11,29.88,10.0,WNW,28.8,39.1,N/A,,Clear,290,2012-06-12 18:53:00
1:53 PM,72.0,17.1,12,29.88,10.0,West,15.0,31.1,N/A,,Partly Cloudy,260,2012-06-12 19:53:00
2:53 PM,71.1,18.0,13,29.88,10.0,WNW,25.3,38.0,N/A,,Clear,300,2012-06-12 20:53:00
3:53 PM,69.1,19.0,15,29.91,10.0,West,29.9,38.0,N/A,,Clear,270,2012-06-12 21:53:00
4:53 PM,71.1,14.0,11,29.86,10.0,West,26.5,33.4,N/A,,Clear,280,2012-06-12 22:53:00
5:53 PM,71.1,15.1,12,29.88,10.0,WNW,12.7,27.6,N/A,,Clear,290,2012-06-12 23:53:00
6:53 PM,71.1,15.1,12,29.85,10.0,WNW,16.1,23.0,N/A,,Clear,290,2012-06-13 00:53:00
7:53 PM,68.0,19.0,15,29.83,10.0,NNW,10.4,-,N/A,,Clear,330,2012-06-13 01:53:00
8:53 PM,62.6,19.4,19,30.14,10.0,NW,9.2,-,N/A,,Clear,310,2012-06-13 02:53:00
9:53 PM,57.9,19.9,23,29.85,10.0,WNW,3.5,-,N/A,,Clear,300,2012-06-13 03:53:00
10:53 PM,55.9,23.0,28,29.83,10.0,South,4.6,-,N/A,,Clear,180,2012-06-13 04:53:00
11:53 PM,55.0,23.0,29,29.83,10.0,Calm,Calm,-,N/A,,Clear,0,2012-06-13 05:53:00